(123717) = 2000 YX126

Discovered at Anderson Mesa on 2000-12-29 by LONEOS.

Orbit

Orbit type: Main Belt

Note: WebGL enabled browser required.

epoch2024-03-31.0
epoch JD2460400.5
perihelion date2019-11-14.17270
perihelion JD2458801.67270
argument of perihelion (°)231.09653
ascending node (°)322.30662
inclination (°)11.53354
eccentricity0.1028122
perihelion distance (AU)2.4531384
Tisserand w.r.t. Jupiter3.3
ΔV w.r.t. Earth (km/sec)10.4
semimajor axis (AU)2.7342529
mean anomaly (°)348.53579
mean daily motion (°/day)0.21799460
aphelion distance (AU)3.015
period (years)4.52
P-vector [x]-0.96315527
P-vector [y]-0.13937314
P-vector [z]-0.23001532
Q-vector [x]0.23955485
Q-vector [y]-0.83333943
Q-vector [z]-0.49815546
absolute magnitude15.07
phase slope0.15
uncertainty0
referenceMPEC 2024-F74
observations used1027
oppositions17
arc length (days)9348
first opposition used1998
last opposition used2024
residual rms (arc-secs)0.68
perturbers coarse indicatorM-v
perturbers precise indicator003Ek
first observation date used1998-08-17.0
last observation date used2024-03-21.0
computer nameMPCLINUX
JD of orbit computation2456700.466884
perihelion JD uncertainty (days)2.5610E-04
argument of perihelion uncertainty (°)5.5707E-05
ascending node uncertainty (°)3.0041E-05
inclination uncertainty (°)8.8370E-06
eccentricity uncertainty 9.1303E-08
perihelion distance uncertainty (AU)2.5764E-07
Minimum Orbit Intersection Distances (in AU)
for orbit epoch: 2460400.5, reference: E2024-GB3
Mercury2.03923
Venus1.75359
Earth1.47318
Mars0.84514
Jupiter2.02891
Saturn6.29818
Uranus15.9443
Neptune26.8854

Observations

1045 total observations over interval: 1998 08 17.17670 – 2024 03 21.477852
These data are available for download (format description).

Date (UT) J2000 RA J2000 Dec Magn Location Ref
1998 08 17.17670 20 49 25.09 -20 30 02.9 19.2   704 – Lincoln Laboratory ETS, New Mexico MPS 90418
1998 08 17.19759 20 49 23.75 -20 30 00.7 19.3   704 – Lincoln Laboratory ETS, New Mexico MPS 90418
1998 08 17.21844 20 49 22.70 -20 30 00.0 19.3   704 – Lincoln Laboratory ETS, New Mexico MPS 90418
1998 08 17.23976 20 49 21.00 -20 30 00.8 19.3   704 – Lincoln Laboratory ETS, New Mexico MPS 90418
2000 12 18.52048 09 20 59.41 +22 14 44.3 19.8 V 691 – Steward Observatory, Kitt Peak-Spacewatch MPS 25523
2000 12 18.53376 09 20 59.21 +22 14 44.0 19.7 V 691 – Steward Observatory, Kitt Peak-Spacewatch MPS 25523
2000 12 18.54690 09 20 59.06 +22 14 43.3 20.0 V 691 – Steward Observatory, Kitt Peak-Spacewatch MPS 25523
2000 12 29.38151 09 17 13.07 +22 10 59.2 19.0 R 699 – Lowell Observatory-LONEOS MPS 25523
2000 12 29.40682 09 17 12.27 +22 10 58.7   699 – Lowell Observatory-LONEOS MPS 25523
2000 12 29.43205 09 17 11.43 +22 10 58.9   699 – Lowell Observatory-LONEOS MPS 25523
2000 12 29.45730 09 17 10.60 +22 10 58.8   699 – Lowell Observatory-LONEOS MPS 25523
2000 12 29.46441 09 17 10.74 +22 11 00.2 19.2   608 – Haleakala-AMOS MPS 25523
2000 12 29.47427 09 17 10.41 +22 11 00.3 19.3   608 – Haleakala-AMOS MPS 25523
2000 12 29.48427 09 17 10.09 +22 11 00.4 19.4   608 – Haleakala-AMOS MPS 25523
2001 01 04.37682 09 13 38.27 +22 11 40.6 19.1   704 – Lincoln Laboratory ETS, New Mexico MPS 25523
2001 01 04.39199 09 13 37.58 +22 11 40.4 19.9   704 – Lincoln Laboratory ETS, New Mexico MPS 25523
2001 01 04.40713 09 13 36.96 +22 11 41.3 19.3   704 – Lincoln Laboratory ETS, New Mexico MPS 25523
2001 01 04.42228 09 13 36.33 +22 11 40.7 19.7   704 – Lincoln Laboratory ETS, New Mexico MPS 25523
2001 01 04.43745 09 13 35.63 +22 11 41.6 19.6   704 – Lincoln Laboratory ETS, New Mexico MPS 25523
2001 01 19.20149 09 00 56.96 +22 15 49.9 18.3 R 699 – Lowell Observatory-LONEOS MPS 25523
2001 01 19.22336 09 00 55.63 +22 15 50.0   699 – Lowell Observatory-LONEOS MPS 25523
2001 01 19.24526 09 00 54.29 +22 15 50.4   699 – Lowell Observatory-LONEOS MPS 25523
2001 01 19.26715 09 00 52.93 +22 15 51.3   699 – Lowell Observatory-LONEOS MPS 25523
2001 01 19.33198 09 00 48.82 +22 15 52.1 18.7   704 – Lincoln Laboratory ETS, New Mexico MPS 25523
2001 01 19.34813 09 00 47.87 +22 15 52.8 18.7   704 – Lincoln Laboratory ETS, New Mexico MPS 25523
2001 01 19.36351 09 00 46.84 +22 15 52.7 18.8   704 – Lincoln Laboratory ETS, New Mexico MPS 25523
2001 01 19.37890 09 00 45.93 +22 15 52.7 18.7   704 – Lincoln Laboratory ETS, New Mexico MPS 25523
2001 01 19.39430 09 00 44.92 +22 15 53.3 18.3   704 – Lincoln Laboratory ETS, New Mexico MPS 25523
2001 02 01.23080 08 47 05.28 +22 13 37.2 18.1 R 699 – Lowell Observatory-LONEOS MPS 25523
2001 02 01.27748 08 47 02.14 +22 13 35.3   699 – Lowell Observatory-LONEOS MPS 25523
2001 02 01.32722 08 46 58.82 +22 13 33.6   699 – Lowell Observatory-LONEOS MPS 25523
2001 02 01.37468 08 46 55.63 +22 13 31.8   699 – Lowell Observatory-LONEOS MPS 25523
2001 02 03.31062 08 44 49.99 +22 12 09.0 19.1   704 – Lincoln Laboratory ETS, New Mexico MPS 25523
2001 02 03.32562 08 44 48.93 +22 12 08.4 19.6   704 – Lincoln Laboratory ETS, New Mexico MPS 25523
2001 02 03.34046 08 44 48.08 +22 12 07.8 19.4   704 – Lincoln Laboratory ETS, New Mexico MPS 25523
2001 02 03.35530 08 44 46.98 +22 12 06.5 19.2   704 – Lincoln Laboratory ETS, New Mexico MPS 25523
2001 02 03.37015 08 44 45.89 +22 12 05.5 19.3   704 – Lincoln Laboratory ETS, New Mexico MPS 25523
2001 02 19.25274 08 29 08.15 +21 47 44.5 18.7   704 – Lincoln Laboratory ETS, New Mexico MPS 26769
2001 02 19.26686 08 29 07.39 +21 47 43.0 18.8   704 – Lincoln Laboratory ETS, New Mexico MPS 26769
2001 02 19.28101 08 29 06.66 +21 47 41.1 19.1   704 – Lincoln Laboratory ETS, New Mexico MPS 26769
2001 02 19.29528 08 29 05.92 +21 47 38.8 18.9   704 – Lincoln Laboratory ETS, New Mexico MPS 26769
2001 02 22.23764 08 26 43.54 +21 40 34.7 18.7   704 – Lincoln Laboratory ETS, New Mexico MPS 26769
2001 02 22.25167 08 26 42.86 +21 40 32.8 18.7   704 – Lincoln Laboratory ETS, New Mexico MPS 26769
2001 02 22.26568 08 26 42.21 +21 40 30.7 18.7   704 – Lincoln Laboratory ETS, New Mexico MPS 26769
2001 02 22.28042 08 26 41.46 +21 40 28.2 18.6   704 – Lincoln Laboratory ETS, New Mexico MPS 26769
2001 02 22.29457 08 26 40.86 +21 40 26.2 18.9   704 – Lincoln Laboratory ETS, New Mexico MPS 26769
2001 03 02.17373 08 21 28.47 +21 17 49.6 18.6 R 699 – Lowell Observatory-LONEOS MPS 27909
2001 03 02.20095 08 21 27.50 +21 17 44.6   699 – Lowell Observatory-LONEOS MPS 27909
2001 03 02.22824 08 21 26.52 +21 17 38.8   699 – Lowell Observatory-LONEOS MPS 27909
2001 03 02.25562 08 21 25.68 +21 17 33.1   699 – Lowell Observatory-LONEOS MPS 27909
2001 03 13.11557 08 17 18.15 +20 38 46.8 18.7 R 699 – Lowell Observatory-LONEOS MPS 27909
2001 03 13.14047 08 17 17.75 +20 38 41.3   699 – Lowell Observatory-LONEOS MPS 27909
2001 03 13.16547 08 17 17.36 +20 38 36.8   699 – Lowell Observatory-LONEOS MPS 27909
2001 03 13.19050 08 17 17.10 +20 38 32.2   699 – Lowell Observatory-LONEOS MPS 27909
2001 03 20.13488 08 16 33.63 +20 09 53.1 19.1 R 699 – Lowell Observatory-LONEOS MPS 30209
2001 03 20.15672 08 16 33.59 +20 09 47.4   699 – Lowell Observatory-LONEOS MPS 30209
2001 03 20.17863 08 16 33.63 +20 09 41.3   699 – Lowell Observatory-LONEOS MPS 30209
2001 03 20.20056 08 16 33.48 +20 09 37.2   699 – Lowell Observatory-LONEOS MPS 30209
2003 08 24.28620 23 35 02.50 +05 14 23.1 19.1   704 – Lincoln Laboratory ETS, New Mexico MPS 85130
2003 08 24.29906 23 35 01.79 +05 14 22.1 19.4   704 – Lincoln Laboratory ETS, New Mexico MPS 85130
2003 08 24.31245 23 35 01.25 +05 14 21.8 19.4   704 – Lincoln Laboratory ETS, New Mexico MPS 85130
2003 08 24.32614 23 35 00.57 +05 14 21.4 19.4   704 – Lincoln Laboratory ETS, New Mexico MPS 85130
2003 09 16.28617 23 15 16.09 +04 33 27.4 19.5 R 699 – Lowell Observatory-LONEOS MPS 168132
2003 09 16.30599 23 15 14.92 +04 33 21.8   699 – Lowell Observatory-LONEOS MPS 168132
2003 09 16.32601 23 15 13.78 +04 33 18.9   699 – Lowell Observatory-LONEOS MPS 168132
2003 09 16.34600 23 15 12.47 +04 33 17.1   699 – Lowell Observatory-LONEOS MPS 168132
2003 09 19.48565 23 12 25.67 +04 24 02.4 21.0   608 – Haleakala-AMOS MPS 85130
2003 09 19.49637 23 12 25.08 +04 24 00.1 20.2   608 – Haleakala-AMOS MPS 85130
2003 09 19.50745 23 12 24.50 +04 23 58.2 20.4   608 – Haleakala-AMOS MPS 85130
2003 09 20.21095 23 11 47.80 +04 21 48.5 19.6 V 691 – Steward Observatory, Kitt Peak-Spacewatch MPS 85130
2003 09 20.23905 23 11 46.29 +04 21 43.3 19.5 V 691 – Steward Observatory, Kitt Peak-Spacewatch MPS 85130
2003 09 20.26568 23 11 44.85 +04 21 38.4 19.6 V 691 – Steward Observatory, Kitt Peak-Spacewatch MPS 85130
2003 09 23.29303 23 09 08.58 +04 12 09.6 19.1   644 – Palomar Mountain/NEAT MPS 85130
2003 09 23.30418 23 09 07.98 +04 12 07.5 19.1   644 – Palomar Mountain/NEAT MPS 85130
2003 09 23.31593 23 09 07.36 +04 12 05.2 19.1   644 – Palomar Mountain/NEAT MPS 85130
2003 09 30.23410 23 03 32.57 +03 49 36.8 19.1 C 704 – Lincoln Laboratory ETS, New Mexico MPS 291235
2003 09 30.26076 23 03 31.36 +03 49 30.1 18.8 C 704 – Lincoln Laboratory ETS, New Mexico MPS 291235
2003 09 30.27369 23 03 30.81 +03 49 28.9 19.0 C 704 – Lincoln Laboratory ETS, New Mexico MPS 291235
2003 09 30.28687 23 03 30.17 +03 49 26.3 18.8 C 704 – Lincoln Laboratory ETS, New Mexico MPS 291235
2003 12 22.07257 23 11 08.83 +03 56 58.8 21.4 V 291 – LPL/Spacewatch II MPS 94571
2003 12 22.07643 23 11 09.04 +03 56 59.8 21.1 V 291 – LPL/Spacewatch II MPS 94571
2003 12 22.08020 23 11 09.20 +03 57 00.7 21.1 V 291 – LPL/Spacewatch II MPS 94571
2005 12 05.48923 11 56 07.08 -02 51 10.1 20.2 V 703 – Catalina Sky Survey MPS 153420
2005 12 05.49601 11 56 07.58 -02 51 15.7 19.9 V 703 – Catalina Sky Survey MPS 153420
2005 12 05.50286 11 56 08.01 -02 51 18.5 20.1 V 703 – Catalina Sky Survey MPS 153420
2005 12 05.50965 11 56 08.55 -02 51 25.5 19.3 V 703 – Catalina Sky Survey MPS 153420
2006 01 08.48488 12 27 54.21 -09 02 55.1 19.0 V 703 – Catalina Sky Survey MPS 158785
2006 01 08.49082 12 27 54.54 -09 02 55.6 18.9 V 703 – Catalina Sky Survey MPS 158785
2006 01 08.49675 12 27 54.72 -09 02 58.0 19.1 V 703 – Catalina Sky Survey MPS 158785
